Time,TemperatureF,DewpointF,PressureIn,WindDirection,WindDirectionDegrees,WindSpeedMPH,WindSpeedGustMPH,Humidity,HourlyPrecipIn,Conditions,Clouds,dailyrainin,SoftwareType,DateUTC
2013-03-10 00:00:00,45.6,22.0,30.27,ENE,68,4.0,-999.0,39,0.00,,,0.00,Wunderground v.1.15,2013-03-10 08:00:00,
2013-03-10 00:05:00,45.6,22.0,30.27,ENE,68,4.0,-999.0,39,0.00,,,0.00,Wunderground v.1.15,2013-03-10 08:05:00,
2013-03-10 00:10:00,45.6,22.0,30.27,ENE,68,4.0,-999.0,39,0.00,,,0.00,Wunderground v.1.15,2013-03-10 08:10:00,
2013-03-10 00:15:00,45.6,22.0,30.27,ENE,68,4.0,-999.0,39,0.00,,,0.00,Wunderground v.1.15,2013-03-10 08:15:00,
2013-03-10 00:20:00,45.6,22.0,30.27,ENE,68,4.0,-999.0,39,0.00,,,0.00,Wunderground v.1.15,2013-03-10 08:20:00,
2013-03-10 00:25:00,45.6,22.0,30.27,ENE,68,4.0,-999.0,39,0.00,,,0.00,Wunderground v.1.15,2013-03-10 08:25:00,
2013-03-10 00:30:00,45.6,22.0,30.27,ENE,68,4.0,-999.0,39,0.00,,,0.00,Wunderground v.1.15,2013-03-10 08:30:00,
2013-03-10 00:35:00,45.6,22.0,30.27,ENE,68,4.0,-999.0,39,0.00,,,0.00,Wunderground v.1.15,2013-03-10 08:35:00,
2013-03-10 00:40:00,45.6,22.0,30.27,ENE,68,4.0,-999.0,39,0.00,,,0.00,Wunderground v.1.15,2013-03-10 08:40:00,
2013-03-10 00:45:00,47.9,18.7,30.27,NE,45,4.0,-999.0,31,0.00,,,0.00,Wunderground v.1.15,2013-03-10 08:45:00,
2013-03-10 00:50:00,47.9,18.7,30.27,NE,45,4.0,-999.0,31,0.00,,,0.00,Wunderground v.1.15,2013-03-10 08:50:00,
2013-03-10 00:55:00,47.9,18.7,30.27,NE,45,4.0,-999.0,31,0.00,,,0.00,Wunderground v.1.15,2013-03-10 08:55:00,
2013-03-10 01:00:00,47.9,18.7,30.27,NE,45,4.0,-999.0,31,0.00,,,0.00,Wunderground v.1.15,2013-03-10 09:00:00,
2013-03-10 01:05:00,47.9,18.7,30.27,NE,45,4.0,-999.0,31,0.00,,,0.00,Wunderground v.1.15,2013-03-10 09:05:00,
2013-03-10 01:10:00,47.9,18.7,30.27,NE,45,4.0,-999.0,31,0.00,,,0.00,Wunderground v.1.15,2013-03-10 09:10:00,
2013-03-10 01:15:00,53.0,14.0,30.28,NE,45,5.0,-999.0,21,0.00,,,0.00,Wunderground v.1.15,2013-03-10 09:15:00,
2013-03-10 01:20:00,53.0,14.0,30.28,NE,45,5.0,-999.0,21,0.00,,,0.00,Wunderground v.1.15,2013-03-10 09:20:00,
2013-03-10 01:25:00,53.0,14.0,30.28,NE,45,5.0,-999.0,21,0.00,,,0.00,Wunderground v.1.15,2013-03-10 09:25:00,
2013-03-10 01:30:00,53.0,14.0,30.28,NE,45,5.0,-999.0,21,0.00,,,0.00,Wunderground v.1.15,2013-03-10 09:30:00,
2013-03-10 01:35:00,53.0,14.0,30.28,NE,45,5.0,-999.0,21,0.00,,,0.00,Wunderground v.1.15,2013-03-10 09:35:00,
2013-03-10 01:40:00,53.0,14.0,30.28,NE,45,5.0,-999.0,21,0.00,,,0.00,Wunderground v.1.15,2013-03-10 09:40:00,
2013-03-10 01:45:00,53.0,14.0,30.28,NE,45,5.0,-999.0,21,0.00,,,0.00,Wunderground v.1.15,2013-03-10 09:45:00,
2013-03-10 01:50:00,53.0,14.0,30.28,NE,45,5.0,-999.0,21,0.00,,,0.00,Wunderground v.1.15,2013-03-10 09:50:00,
2013-03-10 01:55:00,53.0,14.0,30.28,NE,45,5.0,-999.0,21,0.00,,,0.00,Wunderground v.1.15,2013-03-10 09:55:00,
2013-03-10 03:00:00,51.9,15.2,30.26,NE,45,4.0,-999.0,23,0.00,,,0.00,Wunderground v.1.15,2013-03-10 10:00:00,
2013-03-10 03:05:00,51.9,15.2,30.26,NE,45,4.0,-999.0,23,0.00,,,0.00,Wunderground v.1.15,2013-03-10 10:05:00,
2013-03-10 03:10:00,51.9,15.2,30.26,NE,45,4.0,-999.0,23,0.00,,,0.00,Wunderground v.1.15,2013-03-10 10:10:00,
2013-03-10 03:15:00,51.9,14.2,30.26,NE,45,5.0,-999.0,22,0.00,,,0.00,Wunderground v.1.15,2013-03-10 10:15:00,
2013-03-10 03:20:00,51.9,14.2,30.26,NE,45,5.0,-999.0,22,0.00,,,0.00,Wunderground v.1.15,2013-03-10 10:20:00,
2013-03-10 03:25:00,51.9,14.2,30.26,NE,45,5.0,-999.0,22,0.00,,,0.00,Wunderground v.1.15,2013-03-10 10:25:00,
2013-03-10 03:30:00,51.9,14.2,30.26,NE,45,5.0,-999.0,22,0.00,,,0.00,Wunderground v.1.15,2013-03-10 10:30:00,
2013-03-10 03:35:00,51.9,14.2,30.26,NE,45,5.0,-999.0,22,0.00,,,0.00,Wunderground v.1.15,2013-03-10 10:35:00,
2013-03-10 03:40:00,51.9,14.2,30.26,NE,45,5.0,-999.0,22,0.00,,,0.00,Wunderground v.1.15,2013-03-10 10:40:00,
2013-03-10 03:45:00,50.2,15.7,30.26,NE,45,3.0,-999.0,25,0.00,,,0.00,Wunderground v.1.15,2013-03-10 10:45:00,
2013-03-10 03:50:00,50.2,15.7,30.26,NE,45,3.0,-999.0,25,0.00,,,0.00,Wunderground v.1.15,2013-03-10 10:50:00,
2013-03-10 03:55:00,50.2,15.7,30.26,NE,45,3.0,-999.0,25,0.00,,,0.00,Wunderground v.1.15,2013-03-10 10:55:00,
2013-03-10 04:00:00,50.2,15.7,30.26,NE,45,3.0,-999.0,25,0.00,,,0.00,Wunderground v.1.15,2013-03-10 11:00:00,
2013-03-10 04:05:00,50.2,15.7,30.26,NE,45,3.0,-999.0,25,0.00,,,0.00,Wunderground v.1.15,2013-03-10 11:05:00,
2013-03-10 04:10:00,50.2,15.7,30.26,NE,45,3.0,-999.0,25,0.00,,,0.00,Wunderground v.1.15,2013-03-10 11:10:00,
2013-03-10 04:15:00,48.1,15.6,30.25,ENE,68,3.0,-999.0,27,0.00,,,0.00,Wunderground v.1.15,2013-03-10 11:15:00,
2013-03-10 04:20:00,48.1,15.6,30.25,ENE,68,3.0,-999.0,27,0.00,,,0.00,Wunderground v.1.15,2013-03-10 11:20:00,
2013-03-10 04:25:00,48.1,15.6,30.25,ENE,68,3.0,-999.0,27,0.00,,,0.00,Wunderground v.1.15,2013-03-10 11:25:00,
2013-03-10 04:30:00,48.1,15.6,30.25,ENE,68,3.0,-999.0,27,0.00,,,0.00,Wunderground v.1.15,2013-03-10 11:30:00,
2013-03-10 04:35:00,48.1,15.6,30.25,ENE,68,3.0,-999.0,27,0.00,,,0.00,Wunderground v.1.15,2013-03-10 11:35:00,
2013-03-10 04:40:00,48.1,15.6,30.25,ENE,68,3.0,-999.0,27,0.00,,,0.00,Wunderground v.1.15,2013-03-10 11:40:00,
2013-03-10 04:55:00,47.9,16.3,30.25,ENE,68,3.0,-999.0,28,0.00,,,0.00,Wunderground v.1.15,2013-03-10 11:55:00,
2013-03-10 05:00:00,47.9,16.3,30.25,ENE,68,3.0,-999.0,28,0.00,,,0.00,Wunderground v.1.15,2013-03-10 12:00:00,
2013-03-10 05:05:00,47.9,16.3,30.25,ENE,68,3.0,-999.0,28,0.00,,,0.00,Wunderground v.1.15,2013-03-10 12:05:00,
2013-03-10 05:10:00,47.9,16.3,30.25,ENE,68,3.0,-999.0,28,0.00,,,0.00,Wunderground v.1.15,2013-03-10 12:10:00,
2013-03-10 05:15:00,48.9,14.6,30.26,ENE,68,2.0,-999.0,25,0.00,,,0.00,Wunderground v.1.15,2013-03-10 12:15:00,
2013-03-10 05:20:00,48.9,14.6,30.26,ENE,68,2.0,-999.0,25,0.00,,,0.00,Wunderground v.1.15,2013-03-10 12:20:00,
2013-03-10 05:25:00,48.9,14.6,30.26,ENE,68,2.0,-999.0,25,0.00,,,0.00,Wunderground v.1.15,2013-03-10 12:25:00,
2013-03-10 05:30:00,48.9,14.6,30.26,ENE,68,2.0,-999.0,25,0.00,,,0.00,Wunderground v.1.15,2013-03-10 12:30:00,
2013-03-10 05:35:00,48.9,14.6,30.26,ENE,68,2.0,-999.0,25,0.00,,,0.00,Wunderground v.1.15,2013-03-10 12:35:00,
2013-03-10 05:40:00,48.9,14.6,30.26,ENE,68,2.0,-999.0,25,0.00,,,0.00,Wunderground v.1.15,2013-03-10 12:40:00,
2013-03-10 05:45:00,44.9,17.5,30.26,West,270,0.0,-999.0,33,0.00,,,0.00,Wunderground v.1.15,2013-03-10 12:45:00,
2013-03-10 05:50:00,44.9,17.5,30.26,West,270,0.0,-999.0,33,0.00,,,0.00,Wunderground v.1.15,2013-03-10 12:50:00,
2013-03-10 05:55:00,44.9,17.5,30.26,West,270,0.0,-999.0,33,0.00,,,0.00,Wunderground v.1.15,2013-03-10 12:55:00,
2013-03-10 06:00:00,44.9,17.5,30.26,West,270,0.0,-999.0,33,0.00,,,0.00,Wunderground v.1.15,2013-03-10 13:00:00,
2013-03-10 06:05:00,44.9,17.5,30.26,West,270,0.0,-999.0,33,0.00,,,0.00,Wunderground v.1.15,2013-03-10 13:05:00,
2013-03-10 06:10:00,44.9,17.5,30.26,West,270,0.0,-999.0,33,0.00,,,0.00,Wunderground v.1.15,2013-03-10 13:10:00,
2013-03-10 06:15:00,43.1,22.6,30.27,West,270,0.0,-999.0,44,0.00,,,0.00,Wunderground v.1.15,2013-03-10 13:15:00,
2013-03-10 06:20:00,43.1,22.6,30.27,West,270,0.0,-999.0,44,0.00,,,0.00,Wunderground v.1.15,2013-03-10 13:20:00,
2013-03-10 06:25:00,43.1,22.6,30.27,West,270,0.0,-999.0,44,0.00,,,0.00,Wunderground v.1.15,2013-03-10 13:25:00,
2013-03-10 06:30:00,43.1,22.6,30.27,West,270,0.0,-999.0,44,0.00,,,0.00,Wunderground v.1.15,2013-03-10 13:30:00,
2013-03-10 06:35:00,43.1,22.6,30.27,West,270,0.0,-999.0,44,0.00,,,0.00,Wunderground v.1.15,2013-03-10 13:35:00,
2013-03-10 06:40:00,43.1,22.6,30.27,West,270,0.0,-999.0,44,0.00,,,0.00,Wunderground v.1.15,2013-03-10 13:40:00,
2013-03-10 06:45:00,42.5,27.9,30.28,WNW,293,0.0,-999.0,56,0.00,,,0.00,Wunderground v.1.15,2013-03-10 13:45:00,
2013-03-10 06:50:00,42.5,27.9,30.28,WNW,293,0.0,-999.0,56,0.00,,,0.00,Wunderground v.1.15,2013-03-10 13:50:00,
2013-03-10 06:55:00,42.5,27.9,30.28,WNW,293,0.0,-999.0,56,0.00,,,0.00,Wunderground v.1.15,2013-03-10 13:55:00,
2013-03-10 07:00:00,42.5,27.9,30.28,WNW,293,0.0,-999.0,56,0.00,,,0.00,Wunderground v.1.15,2013-03-10 14:00:00,
2013-03-10 07:05:00,42.5,27.9,30.28,WNW,293,0.0,-999.0,56,0.00,,,0.00,Wunderground v.1.15,2013-03-10 14:05:00,
2013-03-10 07:10:00,42.5,27.9,30.28,WNW,293,0.0,-999.0,56,0.00,,,0.00,Wunderground v.1.15,2013-03-10 14:10:00,
2013-03-10 07:15:00,42.0,31.8,30.28,WNW,293,0.0,-999.0,67,0.00,,,0.00,Wunderground v.1.15,2013-03-10 14:15:00,
2013-03-10 07:20:00,42.0,31.8,30.28,WNW,293,0.0,-999.0,67,0.00,,,0.00,Wunderground v.1.15,2013-03-10 14:20:00,
2013-03-10 07:25:00,42.0,31.8,30.28,WNW,293,0.0,-999.0,67,0.00,,,0.00,Wunderground v.1.15,2013-03-10 14:25:00,
2013-03-10 07:30:00,42.0,31.8,30.28,WNW,293,0.0,-999.0,67,0.00,,,0.00,Wunderground v.1.15,2013-03-10 14:30:00,
2013-03-10 07:35:00,42.0,31.8,30.28,WNW,293,0.0,-999.0,67,0.00,,,0.00,Wunderground v.1.15,2013-03-10 14:35:00,
2013-03-10 07:40:00,42.0,31.8,30.28,WNW,293,0.0,-999.0,67,0.00,,,0.00,Wunderground v.1.15,2013-03-10 14:40:00,
2013-03-10 07:45:00,41.7,29.2,30.29,East,90,0.0,-999.0,61,0.00,,,0.00,Wunderground v.1.15,2013-03-10 14:45:00,
2013-03-10 07:50:00,41.7,29.2,30.29,East,90,0.0,-999.0,61,0.00,,,0.00,Wunderground v.1.15,2013-03-10 14:50:00,
2013-03-10 07:55:00,41.7,29.2,30.29,East,90,0.0,-999.0,61,0.00,,,0.00,Wunderground v.1.15,2013-03-10 14:55:00,
2013-03-10 08:00:00,41.7,29.2,30.29,East,90,0.0,-999.0,61,0.00,,,0.00,Wunderground v.1.15,2013-03-10 15:00:00,
2013-03-10 08:05:00,41.7,29.2,30.29,East,90,0.0,-999.0,61,0.00,,,0.00,Wunderground v.1.15,2013-03-10 15:05:00,
2013-03-10 08:10:00,41.7,29.2,30.29,East,90,0.0,-999.0,61,0.00,,,0.00,Wunderground v.1.15,2013-03-10 15:10:00,
2013-03-10 08:15:00,42.5,27.5,30.29,ENE,68,1.0,-999.0,55,0.00,,,0.00,Wunderground v.1.15,2013-03-10 15:15:00,
2013-03-10 08:20:00,42.5,27.5,30.29,ENE,68,1.0,-999.0,55,0.00,,,0.00,Wunderground v.1.15,2013-03-10 15:20:00,
2013-03-10 08:25:00,42.5,27.5,30.29,ENE,68,1.0,-999.0,55,0.00,,,0.00,Wunderground v.1.15,2013-03-10 15:25:00,
2013-03-10 08:30:00,42.5,27.5,30.29,ENE,68,1.0,-999.0,55,0.00,,,0.00,Wunderground v.1.15,2013-03-10 15:30:00,
2013-03-10 08:35:00,42.5,27.5,30.29,ENE,68,1.0,-999.0,55,0.00,,,0.00,Wunderground v.1.15,2013-03-10 15:35:00,
2013-03-10 08:40:00,42.5,27.5,30.29,ENE,68,1.0,-999.0,55,0.00,,,0.00,Wunderground v.1.15,2013-03-10 15:40:00,
2013-03-10 08:45:00,46.4,25.1,30.29,East,90,2.0,-999.0,43,0.00,,,0.00,Wunderground v.1.15,2013-03-10 15:45:00,
2013-03-10 08:50:00,46.4,25.1,30.29,East,90,2.0,-999.0,43,0.00,,,0.00,Wunderground v.1.15,2013-03-10 15:50:00,
2013-03-10 08:55:00,46.4,25.1,30.29,East,90,2.0,-999.0,43,0.00,,,0.00,Wunderground v.1.15,2013-03-10 15:55:00,
2013-03-10 09:00:00,46.4,25.1,30.29,East,90,2.0,-999.0,43,0.00,,,0.00,Wunderground v.1.15,2013-03-10 16:00:00,
2013-03-10 09:05:00,46.4,25.1,30.29,East,90,2.0,-999.0,43,0.00,,,0.00,Wunderground v.1.15,2013-03-10 16:05:00,
2013-03-10 09:10:00,46.4,25.1,30.29,East,90,2.0,-999.0,43,0.00,,,0.00,Wunderground v.1.15,2013-03-10 16:10:00,
2013-03-10 09:15:00,50.7,22.6,30.28,East,90,1.0,-999.0,33,0.00,,,0.00,Wunderground v.1.15,2013-03-10 16:15:00,
2013-03-10 09:20:00,50.7,22.6,30.28,East,90,1.0,-999.0,33,0.00,,,0.00,Wunderground v.1.15,2013-03-10 16:20:00,
2013-03-10 09:25:00,50.7,22.6,30.28,East,90,1.0,-999.0,33,0.00,,,0.00,Wunderground v.1.15,2013-03-10 16:25:00,
2013-03-10 09:50:00,53.3,28.3,30.29,WSW,256,1.0,1.0,38,0.00,,,0.00,Wunderground v.1.15,2013-03-10 16:50:00,
2013-03-10 10:00:00,53.3,31.4,30.29,SW,232,1.0,2.0,43,0.00,,,0.00,Wunderground v.1.15,2013-03-10 17:00:00,
2013-03-10 10:10:00,53.2,32.9,30.29,SSW,204,1.0,1.0,46,0.00,,,0.00,Wunderground v.1.15,2013-03-10 17:10:00,
2013-03-10 10:20:00,52.4,32.7,30.28,SSW,193,2.0,2.0,47,0.00,,,0.00,Wunderground v.1.15,2013-03-10 17:20:00,
2013-03-10 10:30:00,53.3,32.5,30.28,WSW,253,1.0,1.0,45,0.00,,,0.00,Wunderground v.1.15,2013-03-10 17:30:00,
2013-03-10 10:40:00,54.6,31.9,30.28,WSW,242,0.0,4.0,42,0.00,,,0.00,Wunderground v.1.15,2013-03-10 17:40:00,
2013-03-10 10:50:00,55.1,33.6,30.28,ESE,102,1.0,1.0,44,0.00,,,0.00,Wunderground v.1.15,2013-03-10 17:50:00,
2013-03-10 11:00:00,56.8,34.5,30.28,WSW,238,1.0,4.0,43,0.00,,,0.00,Wunderground v.1.15,2013-03-10 18:00:00,
2013-03-10 11:10:00,56.2,34.0,30.28,WNW,302,1.0,4.0,43,0.00,,,0.00,Wunderground v.1.15,2013-03-10 18:10:00,
2013-03-10 11:20:00,56.1,35.6,30.28,WSW,238,1.0,4.0,46,0.00,,,0.00,Wunderground v.1.15,2013-03-10 18:20:00,
2013-03-10 15:32:00,60.8,43.6,30.23,WSW,248,1.0,-999.0,53,0.00,,,0.00,Wunderground v.1.15,2013-03-10 22:32:00,
2013-03-10 15:37:00,60.8,43.6,30.23,WSW,248,1.0,-999.0,53,0.00,,,0.00,Wunderground v.1.15,2013-03-10 22:37:00,
2013-03-10 15:42:00,60.8,43.6,30.23,WSW,248,1.0,-999.0,53,0.00,,,0.00,Wunderground v.1.15,2013-03-10 22:42:00,
2013-03-10 15:47:00,60.3,44.1,30.24,SSW,203,1.0,-999.0,55,0.00,,,0.00,Wunderground v.1.15,2013-03-10 22:47:00,
2013-03-10 15:52:00,60.3,44.1,30.24,SSW,203,1.0,-999.0,55,0.00,,,0.00,Wunderground v.1.15,2013-03-10 22:52:00,
2013-03-10 15:57:00,60.3,44.1,30.24,SSW,203,1.0,-999.0,55,0.00,,,0.00,Wunderground v.1.15,2013-03-10 22:57:00,
2013-03-10 16:02:00,60.3,44.1,30.24,SSW,203,1.0,-999.0,55,0.00,,,0.00,Wunderground v.1.15,2013-03-10 23:02:00,
2013-03-10 16:07:00,60.3,44.1,30.24,SSW,203,1.0,-999.0,55,0.00,,,0.00,Wunderground v.1.15,2013-03-10 23:07:00,
2013-03-10 16:12:00,60.3,44.1,30.24,SSW,203,1.0,-999.0,55,0.00,,,0.00,Wunderground v.1.15,2013-03-10 23:12:00,
2013-03-10 16:17:00,59.5,43.8,30.23,SW,225,1.0,-999.0,56,0.00,,,0.00,Wunderground v.1.15,2013-03-10 23:17:00,
2013-03-10 16:22:00,59.5,43.8,30.23,SW,225,1.0,-999.0,56,0.00,,,0.00,Wunderground v.1.15,2013-03-10 23:22:00,
2013-03-10 16:27:00,59.5,43.8,30.23,SW,225,1.0,-999.0,56,0.00,,,0.00,Wunderground v.1.15,2013-03-10 23:27:00,
2013-03-10 16:32:00,59.5,43.8,30.23,SW,225,1.0,-999.0,56,0.00,,,0.00,Wunderground v.1.15,2013-03-10 23:32:00,
2013-03-10 16:37:00,59.5,43.8,30.23,SW,225,1.0,-999.0,56,0.00,,,0.00,Wunderground v.1.15,2013-03-10 23:37:00,
2013-03-10 16:42:00,59.5,43.8,30.23,SW,225,1.0,-999.0,56,0.00,,,0.00,Wunderground v.1.15,2013-03-10 23:42:00,
2013-03-10 16:47:00,58.3,42.7,30.23,SE,135,1.0,-999.0,56,0.00,,,0.00,Wunderground v.1.15,2013-03-10 23:47:00,
2013-03-10 16:52:00,58.3,42.7,30.23,SE,135,1.0,-999.0,56,0.00,,,0.00,Wunderground v.1.15,2013-03-10 23:52:00,
2013-03-10 16:57:00,58.3,42.7,30.23,SE,135,1.0,-999.0,56,0.00,,,0.00,Wunderground v.1.15,2013-03-10 23:57:00,
2013-03-10 17:02:00,58.3,42.7,30.23,SE,135,1.0,-999.0,56,0.00,,,0.00,Wunderground v.1.15,2013-03-11 00:02:00,
2013-03-10 17:07:00,58.3,42.7,30.23,SE,135,1.0,-999.0,56,0.00,,,0.00,Wunderground v.1.15,2013-03-11 00:07:00,
2013-03-10 17:12:00,58.3,42.7,30.23,SE,135,1.0,-999.0,56,0.00,,,0.00,Wunderground v.1.15,2013-03-11 00:12:00,
2013-03-10 17:17:00,56.9,42.3,30.22,SE,135,1.0,-999.0,58,0.00,,,0.00,Wunderground v.1.15,2013-03-11 00:17:00,
2013-03-10 17:22:00,56.9,42.3,30.22,SE,135,1.0,-999.0,58,0.00,,,0.00,Wunderground v.1.15,2013-03-11 00:22:00,
2013-03-10 17:27:00,56.9,42.3,30.22,SE,135,1.0,-999.0,58,0.00,,,0.00,Wunderground v.1.15,2013-03-11 00:27:00,
2013-03-10 17:32:00,56.9,42.3,30.22,SE,135,1.0,-999.0,58,0.00,,,0.00,Wunderground v.1.15,2013-03-11 00:32:00,
2013-03-10 17:37:00,56.9,42.3,30.22,SE,135,1.0,-999.0,58,0.00,,,0.00,Wunderground v.1.15,2013-03-11 00:37:00,
2013-03-10 17:42:00,56.9,42.3,30.22,SE,135,1.0,-999.0,58,0.00,,,0.00,Wunderground v.1.15,2013-03-11 00:42:00,
2013-03-10 17:47:00,57.2,42.1,30.22,SSE,158,1.0,-999.0,57,0.00,,,0.00,Wunderground v.1.15,2013-03-11 00:47:00,
2013-03-10 17:52:00,57.2,42.1,30.22,SSE,158,1.0,-999.0,57,0.00,,,0.00,Wunderground v.1.15,2013-03-11 00:52:00,
2013-03-10 17:57:00,57.2,42.1,30.22,SSE,158,1.0,-999.0,57,0.00,,,0.00,Wunderground v.1.15,2013-03-11 00:57:00,
2013-03-10 18:02:00,57.2,42.1,30.22,SSE,158,1.0,-999.0,57,0.00,,,0.00,Wunderground v.1.15,2013-03-11 01:02:00,
2013-03-10 18:07:00,57.2,42.1,30.22,SSE,158,1.0,-999.0,57,0.00,,,0.00,Wunderground v.1.15,2013-03-11 01:07:00,
2013-03-10 18:12:00,57.2,42.1,30.22,SSE,158,1.0,-999.0,57,0.00,,,0.00,Wunderground v.1.15,2013-03-11 01:12:00,
2013-03-10 18:17:00,55.7,40.7,30.23,SSW,203,0.0,-999.0,57,0.00,,,0.00,Wunderground v.1.15,2013-03-11 01:17:00,
2013-03-10 18:22:00,55.7,40.7,30.23,SSW,203,0.0,-999.0,57,0.00,,,0.00,Wunderground v.1.15,2013-03-11 01:22:00,
2013-03-10 18:27:00,55.7,40.7,30.23,SSW,203,0.0,-999.0,57,0.00,,,0.00,Wunderground v.1.15,2013-03-11 01:27:00,
2013-03-10 18:32:00,55.7,40.7,30.23,SSW,203,0.0,-999.0,57,0.00,,,0.00,Wunderground v.1.15,2013-03-11 01:32:00,
2013-03-10 18:37:00,55.7,40.7,30.23,SSW,203,0.0,-999.0,57,0.00,,,0.00,Wunderground v.1.15,2013-03-11 01:37:00,
2013-03-10 18:42:00,55.7,40.7,30.23,SSW,203,0.0,-999.0,57,0.00,,,0.00,Wunderground v.1.15,2013-03-11 01:42:00,
2013-03-10 18:47:00,54.1,40.5,30.22,SSW,203,0.0,-999.0,60,0.00,,,0.00,Wunderground v.1.15,2013-03-11 01:47:00,
2013-03-10 18:52:00,54.1,40.5,30.22,SSW,203,0.0,-999.0,60,0.00,,,0.00,Wunderground v.1.15,2013-03-11 01:52:00,
2013-03-10 18:57:00,54.1,40.5,30.22,SSW,203,0.0,-999.0,60,0.00,,,0.00,Wunderground v.1.15,2013-03-11 01:57:00,
2013-03-10 19:02:00,54.1,40.5,30.22,SSW,203,0.0,-999.0,60,0.00,,,0.00,Wunderground v.1.15,2013-03-11 02:02:00,
2013-03-10 19:07:00,54.1,40.5,30.22,SSW,203,0.0,-999.0,60,0.00,,,0.00,Wunderground v.1.15,2013-03-11 02:07:00,
2013-03-10 19:12:00,54.1,40.5,30.22,SSW,203,0.0,-999.0,60,0.00,,,0.00,Wunderground v.1.15,2013-03-11 02:12:00,
2013-03-10 19:17:00,53.3,40.6,30.23,SSW,203,0.0,-999.0,62,0.00,,,0.00,Wunderground v.1.15,2013-03-11 02:17:00,
2013-03-10 19:22:00,53.3,40.6,30.23,SSW,203,0.0,-999.0,62,0.00,,,0.00,Wunderground v.1.15,2013-03-11 02:22:00,
2013-03-10 19:27:00,53.3,40.6,30.23,SSW,203,0.0,-999.0,62,0.00,,,0.00,Wunderground v.1.15,2013-03-11 02:27:00,
2013-03-10 19:32:00,53.3,40.6,30.23,SSW,203,0.0,-999.0,62,0.00,,,0.00,Wunderground v.1.15,2013-03-11 02:32:00,
2013-03-10 19:37:00,53.3,40.6,30.23,SSW,203,0.0,-999.0,62,0.00,,,0.00,Wunderground v.1.15,2013-03-11 02:37:00,
2013-03-10 19:42:00,53.3,40.6,30.23,SSW,203,0.0,-999.0,62,0.00,,,0.00,Wunderground v.1.15,2013-03-11 02:42:00,
2013-03-10 19:47:00,53.0,40.3,30.23,South,180,1.0,-999.0,62,0.00,,,0.00,Wunderground v.1.15,2013-03-11 02:47:00,
2013-03-10 19:52:00,53.0,40.3,30.23,South,180,1.0,-999.0,62,0.00,,,0.00,Wunderground v.1.15,2013-03-11 02:52:00,
2013-03-10 19:57:00,53.0,40.3,30.23,South,180,1.0,-999.0,62,0.00,,,0.00,Wunderground v.1.15,2013-03-11 02:57:00,
2013-03-10 20:02:00,53.0,40.3,30.23,South,180,1.0,-999.0,62,0.00,,,0.00,Wunderground v.1.15,2013-03-11 03:02:00,
2013-03-10 20:07:00,53.0,40.3,30.23,South,180,1.0,-999.0,62,0.00,,,0.00,Wunderground v.1.15,2013-03-11 03:07:00,
2013-03-10 20:12:00,53.0,40.3,30.23,South,180,1.0,-999.0,62,0.00,,,0.00,Wunderground v.1.15,2013-03-11 03:12:00,
2013-03-10 20:17:00,51.8,40.4,30.23,N/A,-737280,0.0,-999.0,65,0.00,,,0.00,Wunderground v.1.15,2013-03-11 03:17:00,
2013-03-10 20:22:00,51.8,40.4,30.23,N/A,-737280,0.0,-999.0,65,0.00,,,0.00,Wunderground v.1.15,2013-03-11 03:22:00,
2013-03-10 20:27:00,51.8,40.4,30.23,N/A,-737280,0.0,-999.0,65,0.00,,,0.00,Wunderground v.1.15,2013-03-11 03:27:00,
2013-03-10 20:32:00,51.8,40.4,30.23,N/A,-737280,0.0,-999.0,65,0.00,,,0.00,Wunderground v.1.15,2013-03-11 03:32:00,
2013-03-10 20:37:00,51.8,40.4,30.23,N/A,-737280,0.0,-999.0,65,0.00,,,0.00,Wunderground v.1.15,2013-03-11 03:37:00,
2013-03-10 20:42:00,51.8,40.4,30.23,N/A,-737280,0.0,-999.0,65,0.00,,,0.00,Wunderground v.1.15,2013-03-11 03:42:00,
2013-03-10 20:47:00,50.8,41.0,30.23,N/A,-737280,0.0,-999.0,69,0.00,,,0.00,Wunderground v.1.15,2013-03-11 03:47:00,
2013-03-10 20:52:00,50.8,41.0,30.23,N/A,-737280,0.0,-999.0,69,0.00,,,0.00,Wunderground v.1.15,2013-03-11 03:52:00,
2013-03-10 20:57:00,50.8,41.0,30.23,N/A,-737280,0.0,-999.0,69,0.00,,,0.00,Wunderground v.1.15,2013-03-11 03:57:00,
2013-03-10 21:02:00,50.8,41.0,30.23,N/A,-737280,0.0,-999.0,69,0.00,,,0.00,Wunderground v.1.15,2013-03-11 04:02:00,
2013-03-10 21:07:00,50.8,41.0,30.23,N/A,-737280,0.0,-999.0,69,0.00,,,0.00,Wunderground v.1.15,2013-03-11 04:07:00,
2013-03-10 21:12:00,50.8,41.0,30.23,N/A,-737280,0.0,-999.0,69,0.00,,,0.00,Wunderground v.1.15,2013-03-11 04:12:00,
2013-03-10 21:17:00,50.1,41.4,30.23,N/A,-737280,0.0,-999.0,72,0.00,,,0.00,Wunderground v.1.15,2013-03-11 04:17:00,
2013-03-10 21:22:00,50.1,41.4,30.23,N/A,-737280,0.0,-999.0,72,0.00,,,0.00,Wunderground v.1.15,2013-03-11 04:22:00,
2013-03-10 21:27:00,50.1,41.4,30.23,N/A,-737280,0.0,-999.0,72,0.00,,,0.00,Wunderground v.1.15,2013-03-11 04:27:00,
2013-03-10 21:32:00,50.1,41.4,30.23,N/A,-737280,0.0,-999.0,72,0.00,,,0.00,Wunderground v.1.15,2013-03-11 04:32:00,
2013-03-10 21:37:00,50.1,41.4,30.23,N/A,-737280,0.0,-999.0,72,0.00,,,0.00,Wunderground v.1.15,2013-03-11 04:37:00,
2013-03-10 21:42:00,50.1,41.4,30.23,N/A,-737280,0.0,-999.0,72,0.00,,,0.00,Wunderground v.1.15,2013-03-11 04:42:00,
2013-03-10 21:47:00,49.9,40.9,30.23,East,90,0.0,-999.0,71,0.00,,,0.00,Wunderground v.1.15,2013-03-11 04:47:00,
2013-03-10 21:52:00,49.9,40.9,30.23,East,90,0.0,-999.0,71,0.00,,,0.00,Wunderground v.1.15,2013-03-11 04:52:00,
2013-03-10 21:57:00,49.9,40.9,30.23,East,90,0.0,-999.0,71,0.00,,,0.00,Wunderground v.1.15,2013-03-11 04:57:00,
2013-03-10 22:02:00,49.9,40.9,30.23,East,90,0.0,-999.0,71,0.00,,,0.00,Wunderground v.1.15,2013-03-11 05:02:00,
2013-03-10 22:07:00,49.9,40.9,30.23,East,90,0.0,-999.0,71,0.00,,,0.00,Wunderground v.1.15,2013-03-11 05:07:00,
2013-03-10 22:12:00,49.9,40.9,30.23,East,90,0.0,-999.0,71,0.00,,,0.00,Wunderground v.1.15,2013-03-11 05:12:00,
2013-03-10 22:17:00,49.5,41.9,30.24,East,90,0.0,-999.0,75,0.00,,,0.00,Wunderground v.1.15,2013-03-11 05:17:00,
2013-03-10 22:22:00,49.5,41.9,30.24,East,90,0.0,-999.0,75,0.00,,,0.00,Wunderground v.1.15,2013-03-11 05:22:00,
2013-03-10 22:27:00,49.5,41.9,30.24,East,90,0.0,-999.0,75,0.00,,,0.00,Wunderground v.1.15,2013-03-11 05:27:00,
2013-03-10 22:32:00,49.5,41.9,30.24,East,90,0.0,-999.0,75,0.00,,,0.00,Wunderground v.1.15,2013-03-11 05:32:00,
2013-03-10 22:37:00,49.5,41.9,30.24,East,90,0.0,-999.0,75,0.00,,,0.00,Wunderground v.1.15,2013-03-11 05:37:00,
2013-03-10 22:42:00,49.5,41.9,30.24,East,90,0.0,-999.0,75,0.00,,,0.00,Wunderground v.1.15,2013-03-11 05:42:00,
2013-03-10 22:47:00,49.0,41.8,30.24,N/A,-737280,0.0,-999.0,76,0.00,,,0.00,Wunderground v.1.15,2013-03-11 05:47:00,
2013-03-10 22:52:00,49.0,41.8,30.24,N/A,-737280,0.0,-999.0,76,0.00,,,0.00,Wunderground v.1.15,2013-03-11 05:52:00,
2013-03-10 22:57:00,49.0,41.8,30.24,N/A,-737280,0.0,-999.0,76,0.00,,,0.00,Wunderground v.1.15,2013-03-11 05:57:00,
2013-03-10 23:02:00,49.0,41.8,30.24,N/A,-737280,0.0,-999.0,76,0.00,,,0.00,Wunderground v.1.15,2013-03-11 06:02:00,
2013-03-10 23:07:00,49.0,41.8,30.24,N/A,-737280,0.0,-999.0,76,0.00,,,0.00,Wunderground v.1.15,2013-03-11 06:07:00,
2013-03-10 23:12:00,49.0,41.8,30.24,N/A,-737280,0.0,-999.0,76,0.00,,,0.00,Wunderground v.1.15,2013-03-11 06:12:00,
2013-03-10 23:17:00,47.8,42.3,30.23,East,90,0.0,-999.0,81,0.00,,,0.00,Wunderground v.1.15,2013-03-11 06:17:00,
2013-03-10 23:22:00,47.8,42.3,30.23,East,90,0.0,-999.0,81,0.00,,,0.00,Wunderground v.1.15,2013-03-11 06:22:00,
2013-03-10 23:27:00,47.8,42.3,30.23,East,90,0.0,-999.0,81,0.00,,,0.00,Wunderground v.1.15,2013-03-11 06:27:00,
2013-03-10 23:32:00,47.8,42.3,30.23,East,90,0.0,-999.0,81,0.00,,,0.00,Wunderground v.1.15,2013-03-11 06:32:00,
2013-03-10 23:37:00,47.8,42.3,30.23,East,90,0.0,-999.0,81,0.00,,,0.00,Wunderground v.1.15,2013-03-11 06:37:00,
2013-03-10 23:42:00,47.8,42.3,30.23,East,90,0.0,-999.0,81,0.00,,,0.00,Wunderground v.1.15,2013-03-11 06:42:00,
2013-03-10 23:47:00,47.6,42.4,30.23,ENE,68,0.0,-999.0,82,0.00,,,0.00,Wunderground v.1.15,2013-03-11 06:47:00,
2013-03-10 23:52:00,47.6,42.4,30.23,ENE,68,0.0,-999.0,82,0.00,,,0.00,Wunderground v.1.15,2013-03-11 06:52:00,
2013-03-10 23:57:00,47.6,42.4,30.23,ENE,68,0.0,-999.0,82,0.00,,,0.00,Wunderground v.1.15,2013-03-11 06:57:00,